Location: Adavinekkalam
(16.6301°N, 80.7229°E)
Time: 11:04:40
(UTC+00:00)

Cosmos 1703 Rocket - Pass Details

Date: 15 May 2026
Orbit: 599 x 625 km, 82.5° (Epoch: 5 June)

Event Time Altitude Azimuth Distance (km) Brightness Sun altitude
Exits shadow 22:53:59 - 181° (S) 2,122 6.0 -16.7°
Reaches altitude 10° 22:54:26 10° 181° (S) 1,945 5.8 -16.6°
Maximum altitude 22:58:43 81° 95° (E) 612 3.5 -15.7°
Drops below altitude 10° 23:03:00 10° 7° (N) 1,936 6.5 -14.8°
Sets 23:05:12 0° 6° (N) 2,837 7.4 -14.3°
